Time,TemperatureF,DewpointF,PressureIn,WindDirection,WindDirectionDegrees,WindSpeedMPH,WindSpeedGustMPH,Humidity,HourlyPrecipIn,Conditions,Clouds,dailyrainin,SoftwareType,DateUTC
2013-02-12 00:00:00,6.0,0.0,-100.00,NW,310,5.0,13.0,77,-99.99,,,-99.99,,2013-02-12 07:00:00,
2013-02-12 00:32:00,6.0,0.0,-100.00,NW,310,5.0,13.0,77,-99.99,,,-99.99,,2013-02-12 07:32:00,
2013-02-12 00:42:00,6.0,0.0,-100.00,NW,310,5.0,13.0,77,-99.99,,,-99.99,,2013-02-12 07:42:00,
2013-02-12 00:52:00,6.0,0.0,-100.00,NW,310,5.0,13.0,77,-99.99,,,-99.99,,2013-02-12 07:52:00,
2013-02-12 02:00:00,6.0,3.0,-100.00,NW,321,4.0,11.0,86,-99.99,,,-99.99,,2013-02-12 09:00:00,
2013-02-12 02:32:00,6.0,3.0,-100.00,NW,321,4.0,11.0,86,-99.99,,,-99.99,,2013-02-12 09:32:00,
2013-02-12 02:42:00,6.0,3.0,-100.00,NW,321,4.0,11.0,86,-99.99,,,-99.99,,2013-02-12 09:42:00,
2013-02-12 02:52:00,6.0,3.0,-100.00,NW,321,4.0,11.0,86,-99.99,,,-99.99,,2013-02-12 09:52:00,
2013-02-12 04:00:00,5.0,3.0,-100.00,NNW,327,2.0,6.0,94,-99.99,,,-99.99,,2013-02-12 11:00:00,
2013-02-12 04:32:00,5.0,3.0,-100.00,NNW,327,2.0,6.0,94,-99.99,,,-99.99,,2013-02-12 11:32:00,
2013-02-12 04:42:00,5.0,3.0,-100.00,NNW,327,2.0,6.0,94,-99.99,,,-99.99,,2013-02-12 11:42:00,
2013-02-12 04:52:00,5.0,3.0,-100.00,NNW,327,2.0,6.0,94,-99.99,,,-99.99,,2013-02-12 11:52:00,
2013-02-12 06:00:00,6.0,5.0,-100.00,NW,315,2.0,6.0,95,-99.99,,,-99.99,,2013-02-12 13:00:00,
2013-02-12 06:32:00,6.0,5.0,-100.00,NW,315,2.0,6.0,95,-99.99,,,-99.99,,2013-02-12 13:32:00,
2013-02-12 06:42:00,6.0,5.0,-100.00,NW,315,2.0,6.0,95,-99.99,,,-99.99,,2013-02-12 13:42:00,
2013-02-12 06:52:00,6.0,5.0,-100.00,NW,315,2.0,6.0,95,-99.99,,,-99.99,,2013-02-12 13:52:00,
2013-02-12 08:00:00,6.0,5.0,-100.00,NNE,20,1.0,2.0,94,-99.99,,,-99.99,,2013-02-12 15:00:00,
2013-02-12 08:32:00,6.0,5.0,-100.00,NNE,20,1.0,2.0,94,-99.99,,,-99.99,,2013-02-12 15:32:00,
2013-02-12 08:42:00,6.0,5.0,-100.00,NNE,20,1.0,2.0,94,-99.99,,,-99.99,,2013-02-12 15:42:00,
2013-02-12 08:52:00,6.0,5.0,-100.00,NNE,20,1.0,2.0,94,-99.99,,,-99.99,,2013-02-12 15:52:00,
2013-02-12 10:00:00,11.0,9.0,-100.00,NW,305,1.0,6.0,91,-99.99,,,-99.99,,2013-02-12 17:00:00,
2013-02-12 10:32:00,11.0,9.0,-100.00,NW,305,1.0,6.0,91,-99.99,,,-99.99,,2013-02-12 17:32:00,
2013-02-12 10:42:00,11.0,9.0,-100.00,NW,305,1.0,6.0,91,-99.99,,,-99.99,,2013-02-12 17:42:00,
2013-02-12 10:52:00,11.0,9.0,-100.00,NW,305,1.0,6.0,91,-99.99,,,-99.99,,2013-02-12 17:52:00,
2013-02-12 12:00:00,12.0,11.0,-100.00,NW,305,4.0,13.0,93,-99.99,,,-99.99,,2013-02-12 19:00:00,
2013-02-12 12:32:00,12.0,11.0,-100.00,NW,305,4.0,13.0,93,-99.99,,,-99.99,,2013-02-12 19:32:00,
2013-02-12 12:42:00,12.0,11.0,-100.00,NW,305,4.0,13.0,93,-99.99,,,-99.99,,2013-02-12 19:42:00,
2013-02-12 12:52:00,12.0,11.0,-100.00,NW,305,4.0,13.0,93,-99.99,,,-99.99,,2013-02-12 19:52:00,
2013-02-12 14:00:00,15.0,14.0,-100.00,NW,311,7.0,17.0,95,-99.99,,,-99.99,,2013-02-12 21:00:00,
2013-02-12 14:32:00,15.0,14.0,-100.00,NW,311,7.0,17.0,95,-99.99,,,-99.99,,2013-02-12 21:32:00,
2013-02-12 14:42:00,15.0,14.0,-100.00,NW,311,7.0,17.0,95,-99.99,,,-99.99,,2013-02-12 21:42:00,
2013-02-12 14:52:00,15.0,14.0,-100.00,NW,311,7.0,17.0,95,-99.99,,,-99.99,,2013-02-12 21:52:00,
2013-02-12 16:00:00,15.0,14.0,-100.00,NW,305,4.0,11.0,95,-99.99,,,-99.99,,2013-02-12 23:00:00,
2013-02-12 16:32:00,15.0,14.0,-100.00,NW,305,4.0,11.0,95,-99.99,,,-99.99,,2013-02-12 23:32:00,
2013-02-12 16:42:00,15.0,14.0,-100.00,NW,305,4.0,11.0,95,-99.99,,,-99.99,,2013-02-12 23:42:00,
2013-02-12 16:52:00,15.0,14.0,-100.00,NW,305,4.0,11.0,95,-99.99,,,-99.99,,2013-02-12 23:52:00,
2013-02-12 18:00:00,14.0,13.0,-100.00,NW,307,4.0,13.0,97,-99.99,,,-99.99,,2013-02-13 01:00:00,
2013-02-12 18:32:00,14.0,13.0,-100.00,NW,307,4.0,13.0,97,-99.99,,,-99.99,,2013-02-13 01:32:00,
2013-02-12 18:42:00,14.0,13.0,-100.00,NW,307,4.0,13.0,97,-99.99,,,-99.99,,2013-02-13 01:42:00,
2013-02-12 18:52:00,14.0,13.0,-100.00,NW,307,4.0,13.0,97,-99.99,,,-99.99,,2013-02-13 01:52:00,
2013-02-12 20:00:00,13.0,12.0,-100.00,NW,312,4.0,14.0,96,-99.99,,,-99.99,,2013-02-13 03:00:00,
2013-02-12 20:32:00,13.0,12.0,-100.00,NW,312,4.0,14.0,96,-99.99,,,-99.99,,2013-02-13 03:32:00,
2013-02-12 20:42:00,13.0,12.0,-100.00,NW,312,4.0,14.0,96,-99.99,,,-99.99,,2013-02-13 03:42:00,
2013-02-12 20:52:00,13.0,12.0,-100.00,NW,312,4.0,14.0,96,-99.99,,,-99.99,,2013-02-13 03:52:00,
2013-02-12 22:00:00,13.0,12.0,-100.00,NW,314,4.0,11.0,96,-99.99,,,-99.99,,2013-02-13 05:00:00,
2013-02-12 22:32:00,13.0,12.0,-100.00,NW,314,4.0,11.0,96,-99.99,,,-99.99,,2013-02-13 05:32:00,
2013-02-12 22:42:00,13.0,12.0,-100.00,NW,314,4.0,11.0,96,-99.99,,,-99.99,,2013-02-13 05:42:00,
2013-02-12 22:52:00,13.0,12.0,-100.00,NW,314,4.0,11.0,96,-99.99,,,-99.99,,2013-02-13 05:52:00,